User: anonymous   Login
Location: Unspecified
(0.0000°N, 0.0000°E)
Time: 00:13:48
(UTC+00:00)
Language:

CHIPSAT - Orbit

View from above orbital plane
View from above orbital plane
View from above satellite
View from above satellite

Ground track
Ground track

The orbit data is extracted from the following two-line orbital elements,

1 27643U 03002B   18112.30793173 +.00000765 +00000-0 +50808-4 0  9996
2 27643 094.0517 192.1703 0016307 353.2236 006.8777 15.07895873835996
Epoch (UTC): 22 April 2018 07:23:25
Eccentricity: 0.0016307
inclination: 94.0517°
perigee height: 531 km
apogee height: 554 km
right ascension of ascending node: 192.1703°
argument of perigee: 353.2236°
revolutions per day: 15.07895873
mean anomaly at epoch: 6.8777°
orbit number at epoch: 83599

The dashed part of the orbit path shows where the satellite is in the earth's shadow,  

DLR